DECAYED

FENGYUN 1C DEB, 30135 (Decayed)

Orbit data source: Space-Track

FENGYUN 1C DEB, 30135 was space debris in SSO originally from a launch on Mon, 10 May 1999 UTC launched from the Taiyaun Space Center, China (TSC). Fengyun 1C debris stems from the Chinese weather satellite Fengyun-1C, which was intentionally destroyed by a Chinese anti-satellite missile in 2007. This event dramatically increased the amount of space debris, with thousands of trackable fragments posing hazards to satellites and human spaceflight. The Fengyun 1C debris cloud has become a focal point in discussions about space sustainability and the need for international regulations to prevent the creation of new debris.

Not visible in the next 10 days
Identifier
30135, 1999-025SQ
Orbit
Decayed
Country
Flag of CNCN / PRC
Related business
Manufacturer
Unknown
Mission
Decayed spacecraft
Bus & Motor
Unknown
Mass
Unknown
Launch date (UTC)
1999-05-10 (27 years ago)
Launch vehicle
Unknown
Launch site
Taiyaun Space Center, China (TSC)
Object type
Payload
Rocket body
Debris
Shape & HBR
Unknown shape, 0.1 m
Radar Cross Section
Small (<0.1 m²)

Expand to show TLE details & history
Last TLE update: 3 months ago

TLE from 3 months ago
0 FENGYUN 1C DEB
1 30135U 99025SQ  25265.40285531  .14437739  32211-5  91375-2 0  9994
2 30135  98.8414 225.3469 0020720 181.4907 308.3464 16.17119658977949
Epoch: 2025-09-22T09:40Z
TLE epoch observation values (Epoch: 2025-09-22T09:40:06.698Z)
Latitude
49.64428°
Longitude
-90.70174°
Altitude
226.85 km
Speed
7.78 km/s
True Right ascension
03h 43m 20s
True Declination
49° 27' 39"
Sunlit
Object was in full shadow at epoch
Visualization orbit readout
Latitude
Unknown
Longitude
Unknown
Altitude
Unknown
Speed
Unknown
Apparent Right ascension
Unknown
Apparent Declination
Unknown
Sunlit
N/A
Visualization observer readout
Local Sidereal Time
11:58:18
Azimuth
Unknown
Elevation
Unknown
Doppler factor
Unknown
Orbital elements
Apogee altitude
237.972 km
Perigee altitude
210.611 km
Semi-major axis
6,602.429 km
Eccentricity
0.00207
Inclination
98.8414°
RAAN
225.3469°
Arg. of periapsis
181.4907°
True anomaly
308.15989°
Mean anomaly
308.3464°
Eccentric anomaly
308.25317°
Mean motion
4.04564 °/min
Orbital period
88.98 mins
BSTAR
0.0091375
Loading maneuver chart data...
Computing Atmospheric mass density...

Documentation

Showing up to 5 results
|